< < Back
Terminal Aerodrome Forecast


Current Version              Previous Versions:   1  2  3  4  5  6  7  8  9  

Terminal Aerodrome Forecast

675
FTUS42 KCHS 221700
TAFSAV
TAF
KSAV 221732Z 2218/2318 22006KT P6SM FEW060 SCT200
     FM222000 20007KT P6SM VCTS SCT035CB BKN150
      TEMPO 2220/2222 VRB15G25KT 3SM TSRA BR BKN035CB
     FM222300 03006KT 6SM -RA BR SCT010 BKN035
     FM230800 04009KT P6SM VCSH SCT015 BKN035=



Latest METAR

905
SAUS80 KWBC 230600 RRB
MTRSAV
METAR KSAV 230553Z AUTO 04006KT 10SM FEW100 20/16 A3005 RMK AO2 SLP174
60005 T02000161 10217 20200 56016 TSNO


USA.gov is the U.S. government's official web portal to all federal, state and local government web resources and services.